CW0736 Weather Reports


Display with metric or nautical units.
time (UTC)temp
F
wind
direction
speed
MPH
gust
MPH
rain 1hr
in
rain 24hr
in
rain mn
in
humidity
%
barometer
mb
20260831091604 65 259 0.0 1.0 0.00 0.01 0.00 95 1019.9
20260831091502 65 259 0.0 1.0 0.00 0.01 0.00 95 1019.9
20260831090056 65 267 0.0 2.0 0.00 0.01 0.00 94 1019.8
20260831084600 65 267 0.0 2.0 0.00 0.01 0.00 94 1020.1
20260831084508 65 267 0.0 2.0 0.00 0.01 0.00 94 1020.1
20260831083107 65 267 0.0 1.0 0.00 0.01 0.00 94 1020.2
20260831081557 65 267 0.0 1.0 0.00 0.01 0.00 94 1020.2
20260831080119 65 267 0.0 2.0 0.00 0.01 0.00 94 1020.4
20260831074548 65 267 1.0 2.0 0.00 0.01 0.00 93 1020.1
20260831073044 65 267 0.0 0.0 0.00 0.01 0.00 93 1020.0
20260831071547 65 267 0.0 1.0 0.00 0.01 0.00 93 1020.2
20260831070046 65 267 0.0 2.0 0.00 0.01 0.00 93 1020.1
20260831064548 64 257 0.0 2.0 0.00 0.01 0.00 93 1020.4
20260831063106 64 223 0.0 1.0 0.00 0.01 0.00 92 1020.5
20260831061550 64 260 0.0 0.0 0.00 0.01 0.00 92 1020.5
20260831060010 64 259 0.0 2.0 0.00 0.01 0.00 92 1020.5
20260831054509 64 182 0.0 1.0 0.00 0.01 0.00 92 1020.6
20260831053012 64 182 0.0 1.0 0.00 0.01 0.00 92 1020.6
20260831051519 64 182 0.0 4.0 0.00 0.01 0.00 92 1020.6
20260831050015 64 152 0.0 2.0 0.00 0.01 0.00 92 1020.6
20260831044551 64 180 0.0 2.0 0.00 0.01 0.00 92 1020.5
20260831043021 64 180 0.0 1.0 0.00 0.01 0.00 92 1020.9
20260831041518 64 180 0.0 1.0 0.00 0.01 0.00 92 1021.1
20260831040030 64 180 0.0 1.0 0.00 0.01 0.01 92 1020.9
20260831034516 64 180 0.0 1.0 0.00 0.01 0.01 92 1020.8
20260831033047 64 190 0.0 1.0 0.00 0.01 0.01 91 1020.9
20260831031538 64 240 0.0 1.0 0.00 0.01 0.01 91 1020.9
20260831030036 64 267 0.0 2.0 0.00 0.01 0.01 91 1021.0
20260831024536 64 267 0.0 1.0 0.00 0.01 0.01 91 1020.9
20260831023042 64 267 0.0 0.0 0.00 0.01 0.01 91 1020.7
20260831021540 64 267 0.0 1.0 0.00 0.01 0.01 90 1020.8
20260831020006 64 267 0.0 0.0 0.00 0.01 0.01 90 1021.0
20260831014507 65 267 0.0 2.0 0.00 0.01 0.01 90 1021.2
20260831013010 65 266 0.0 1.0 0.00 0.01 0.01 89 1021.1
20260831011601 65 267 0.0 2.0 0.00 0.01 0.01 89 1021.1
20260831011504 65 266 0.0 2.0 0.00 0.01 0.01 89 1021.0
20260831010037 65 256 0.0 2.0 0.00 0.01 0.01 88 1020.7
20260831004538 65 252 0.0 3.0 0.00 0.01 0.01 88 1020.4
20260831003038 65 257 1.0 4.0 0.00 0.01 0.01 87 1020.1
20260831001548 65 242 1.0 3.0 0.00 0.01 0.01 87 1019.9
20260831000056 66 242 1.0 6.0 0.00 0.01 0.01 86 1019.7
20260830234544 66 248 2.0 4.0 0.00 0.01 0.01 86 1019.8
20260830233042 67 259 1.0 4.0 0.00 0.01 0.01 86 1019.6
20260830231540 67 248 1.0 4.0 0.00 0.01 0.01 86 1019.6
20260830230028 67 250 1.0 4.0 0.00 0.01 0.01 86 1019.7
20260830224546 67 251 1.0 4.0 0.00 0.01 0.01 86 1019.7
20260830223042 67 257 1.0 3.0 0.00 0.01 0.01 86 1019.8
20260830221527 67 269 1.0 3.0 0.00 0.01 0.01 87 1019.9
20260830220032 67 255 1.0 3.0 0.00 0.01 0.01 88 1019.8
20260830214533 67 262 0.0 1.0 0.00 0.01 0.01 88 1019.8
20260830213047 67 252 0.0 2.0 0.00 0.01 0.01 88 1019.8
20260830211521 67 265 1.0 5.0 0.00 0.01 0.01 87 1019.9
20260830210037 68 266 1.0 3.0 0.00 0.01 0.01 89 1019.8
20260830204542 68 248 0.0 6.0 0.00 0.01 0.01 89 1019.7
20260830203022 68 248 2.0 6.0 0.00 0.01 0.01 90 1019.8
20260830201544 68 271 2.0 6.0 0.00 0.01 0.01 91 1019.9
20260830200043 68 282 1.0 3.0 0.00 0.01 0.01 92 1019.7
20260830194553 67 248 1.0 3.0 0.00 0.01 0.01 92 1019.9
20260830193054 67 273 2.0 6.0 0.00 0.01 0.01 93 1019.8
20260830191523 67 234 2.0 4.0 0.00 0.01 0.01 94 1020.1
20260830190009 67 242 0.0 4.0 0.00 0.01 0.01 94 1020.4
20260830184511 67 254 1.0 3.0 0.00 0.01 0.01 94 1020.5
20260830183003 66 275 0.0 3.0 0.00 0.01 0.01 94 1020.5
20260830181557 66 268 0.0 1.0 0.00 0.01 0.01 94 1020.7
20260830180057 66 268 0.0 1.0 0.01 0.01 0.01 94 1020.6
20260830174602 65 265 0.0 3.0 0.01 0.01 0.01 94 1020.6
20260830173015 65 235 0.0 3.0 0.01 0.01 0.01 93 1020.6
20260830171512 65 261 0.0 3.0 0.01 0.01 0.01 93 1020.7
20260830170014 65 269 0.0 3.0 0.00 0.00 0.00 92 1020.9
20260830164511 65 276 0.0 4.0 0.00 0.00 0.00 92 1021.1
20260830163033 66 260 0.0 3.0 0.00 0.00 0.00 92 1021.1
20260830161618 66 263 2.0 4.0 0.00 0.00 0.00 91 1021.0
20260830160057 66 263 1.0 3.0 0.00 0.00 0.00 90 1021.0
20260830154553 66 256 1.0 4.0 0.00 0.00 0.00 88 1021.0
20260830153051 66 251 1.0 4.0 0.00 0.00 0.00 86 1021.0
20260830151513 66 247 1.0 2.0 0.00 0.00 0.00 85 1021.0
20260830150106 67 203 0.0 0.0 0.00 0.00 0.00 84 1020.9
20260830144552 67 203 0.0 0.0 0.00 0.00 0.00 80 1020.7
20260830143043 67 203 0.0 1.0 0.00 0.00 0.00 79 1020.3
20260830141553 67 217 0.0 2.0 0.00 0.00 0.00 78 1020.1
20260830140006 67 266 0.0 2.0 0.00 0.00 0.00 79 1020.3
20260830134538 67 273 0.0 1.0 0.00 0.00 0.00 78 1019.9
20260830133028 67 273 0.0 2.0 0.00 0.00 0.00 78 1020.0
20260830131521 67 265 0.0 2.0 0.00 0.00 0.00 77 1019.9
20260830130017 67 212 0.0 2.0 0.00 0.00 0.00 77 1019.9
20260830124542 67 252 1.0 3.0 0.00 0.00 0.00 77 1020.0
20260830123034 66 260 0.0 2.0 0.00 0.00 0.00 78 1020.1
20260830121559 66 261 1.0 2.0 0.00 0.00 0.00 78 1020.1
20260830120019 65 232 1.0 2.0 0.00 0.00 0.00 78 1019.9
20260830114534 65 236 1.0 2.0 0.00 0.00 0.00 78 1019.9
20260830113030 65 231 0.0 2.0 0.00 0.00 0.00 78 1020.1
20260830111547 65 238 0.0 2.0 0.00 0.00 0.00 78 1020.1
20260830110011 65 229 1.0 2.0 0.00 0.00 0.00 78 1020.0
20260830104524 65 172 1.0 4.0 0.00 0.00 0.00 77 1020.0
20260830103020 65 247 0.0 2.0 0.00 0.00 0.00 78 1020.0
20260830101511 65 164 1.0 3.0 0.00 0.00 0.00 79 1020.1
20260830100054 65 225 0.0 2.0 0.00 0.00 0.00 79 1020.0
20260830094514 65 218 0.0 2.0 0.00 0.00 0.00 79 1020.2
20260830093009 65 195 0.0 2.0 0.00 0.00 0.00 79 1020.3